Regional Weather Roundup
Issued by NWS Green Bay, WI

Home | Current Version | Previous Version | Graphics & Text | Print | Product List | Glossary Off
Versions: 1 2 3 4 5 6 7 8 9 10 11 12 13 14 15 16 17 18 19 20 21 22 23 24 25 26 27 28 29 30 31 32 33 34 35 36 37 38 39 40 41 42 43 44 45 46 47 48 49 50

000
ASUS43 KGRB 160611
RWRGRB

NORTH-CENTRAL AND NORTHEAST WISCONSIN REGIONAL WEATHER ROUNDUP
NATIONAL WEATHER SERVICE GREEN BAY WI
1200 AM CST SAT DEC 16 2017

WIZ005-009-010>012-018-019-160700-
NORTH CENTRAL WISCONSIN

CITY           SKY/WX    TMP DP  RH WIND       PRES   REMARKS
IRONWOOD       CLOUDY     8   6  92 E3        29.78F
MANITOWISH WTR CLOUDY     8   8  96 E3        29.74F
ARBOR VITAE    CLOUDY    11   8  88 SE3       29.74F
EAGLE RIVER    CLOUDY     9   4  79 CALM      29.75F
LAND O LAKES   CLOUDY     7   4  89 CALM      29.77S
RHINELANDER    CLOUDY    10   7  87 E6        29.76S WCI   0
PHILLIPS       CLOUDY    12   8  85 CALM      29.75S
ANTIGO         CLOUDY    12   8  84 E3        29.77F
TOMAHAWK       CLOUDY    10   7  87 CALM      29.77S
MERRILL        LGT SNOW  13  10  87 CALM      29.78S
$$

WIZ013-073-160700-
NORTHEAST WISCONSIN

CITY           SKY/WX    TMP DP  RH WIND       PRES   REMARKS
IRON MOUNTAIN  CLOUDY     8   3  80 CALM      29.79F
MARINETTE      CLOUDY    12   6  77 CALM      29.86F
OCONTO         CLOUDY    11   7  84 CALM      29.86S
$$

WIZ017-030-035>037-045-160700-
CENTRAL WISCONSIN

CITY           SKY/WX    TMP DP  RH WIND       PRES   REMARKS
MEDFORD        LGT SNOW  15  12  89 E5        29.74S WCI   7
WAUSAU         LGT SNOW  14  12  92 E5        29.76F FOG     WCI   6
MOSINEE        LGT SNOW  18  14  86 E3        29.78F
MARSHFIELD     LGT SNOW  18  16  92 E7        29.74F FOG     WCI   9
WISC RAPIDS    LGT SNOW  20  16  84 E6        29.79F FOG
STEVENS POINT  MIX PCPN  16  16  97 E5        29.79F WCI   9
WAUPACA        LGT SNOW  21  16  83 E3        29.82F
SHAWANO        FLURRIES  16  11  81 CALM      29.84S
CLINTONVILLE   LGT SNOW  16  10  79 CALM      29.84R
WAUTOMA        LGT SNOW  19  18  93 NE6       29.80F FOG
$$

WIZ038-039-048-051-160700-
FOX VALLEY

CITY           SKY/WX    TMP DP  RH WIND       PRES   REMARKS
NWS GREEN BAY  LGT SNOW  17  11  77 CALM      29.85S
APPLETON       LGT SNOW  18  12  79 E5        29.81S
OSHKOSH        LGT SNOW  21  18  88 E6        29.81S FOG
FOND DU LAC    LGT SNOW  24  20  84 E3        29.81F FOG
$$

WIZ022-050-052-160700-
EAST CENTRAL WISCONSIN

CITY           SKY/WX    TMP DP  RH WIND       PRES   REMARKS
EPHRAIM        CLOUDY    17   8  66 NW3       29.83F
WASHINGTON ISL CLOUDY    17   8  65 NW9       29.84S WCI   6
STURGEON BAY   CLOUDY    18   9  68 NW5       29.85F
MANITOWOC      LGT SNOW  17  12  80 CALM      29.85F
SHEBOYGAN      LGT SNOW  20  18  92 NE5       29.83F FOG
$$

LMZ563-521-522-541>543-160700-
LAKESHORE

STATION/POSITION TIME  TEMP    WIND        PRES    VSBY  WAVE
                       AIR SEA DIR/SP/G                  HT/PER
                 (UTC) (F)     (DEG/KT/KT) (MB)    (MI)  (FT/S)
SHEBOYGAN LKSHOR 0600   23      20/  5/  7 1011.4F
KEWAUNEE LKSHORE 0542   15     290/  2/  3 1010.3F
NORTHPORT PIER   0540   20     290/  3/  7 1010.8S
MENOMINEE LKSHOR 0542   15     290/  5/  7 1010.9R
$$




USA.gov is the U.S. government's official web portal to all federal, state and local government web resources and services.